Weather History for KPYX - April, 2014

Change the Weather History Date:

Wednesday, April 23, 2014

  Actual Average Record
Temperature  
Mean Temperature 71 °F -  
Max Temperature 83 °F 72 °F 101 °F (1989)
Min Temperature 59 °F 40 °F 23 °F (2013)
Cooling Degree Days 6    
Growing Degree Days 21 (Base 50)    
Moisture  
Dew Point 50 °F    
Average Humidity 53    
Maximum Humidity 74    
Minimum Humidity 31    
Precipitation  
Precipitation 0.01 in - - ()
Sea Level Pressure  
Sea Level Pressure 29.71 in    
Wind  
Wind Speed 21 mph (South)    
Max Wind Speed 36 mph    
Max Gust Speed 46 mph    
Visibility 10 miles    
Events      
Averages and records for this station are not official NWS values.
T = Trace of Precipitation, MM = Missing Value Source: NWS Daily Summary

Daily Weather History Graph

Daily Weather History Graph

Search for Another Location

Airport or City:

Trip Planner

Search our weather history database for the weather conditions in past years. The results will help you decide how hot, cold, wet, or windy it might be!

Date:

Astronomy

Apr. 23, 2014 Rise Set
Actual Time 6:59 AM CDT 8:24 PM CDT
Civil Twilight 6:32 AM CDT 8:51 PM CDT
Nautical Twilight 5:59 AM CDT 9:23 PM CDT
Astronomical Twilight 5:25 AM CDT 9:57 PM CDT
Moon 3:21 AM CDT (4/23) 2:44 PM CDT (4/23)
Length of Visible Light 14h 19m
Length of Day
13h 25m
Waning Crescent, 34% of the Moon is Illuminated
Apr 23
Waning Crescent
Apr 29
New
May 6
First Quarter
May 14
Full
May 21
Last Quarter

Hourly Weather History & Observations

Time (CDT) Temp. Heat Index Dew Point Humidity Pressure Visibility Wind Dir Wind Speed Gust Speed Precip Events Conditions
12:15 AM 64.0 °F - 48.7 °F 57% 29.86 in 10.0 mi SSE 18.4 mph 25.3 mph N/A   Clear
12:55 AM 63.1 °F - 48.4 °F 59% 29.85 in 10.0 mi South 18.4 mph 23.0 mph N/A   Clear
1:15 AM 63.0 °F - 48.6 °F 59% 29.86 in 10.0 mi South 18.4 mph 23.0 mph N/A   Clear
1:35 AM 63.0 °F - 48.7 °F 60% 29.86 in 10.0 mi South 17.3 mph 24.2 mph N/A   Clear
1:55 AM 63.1 °F - 48.6 °F 59% 29.85 in 10.0 mi South 17.3 mph 20.7 mph N/A   Clear
2:15 AM 63.1 °F - 48.7 °F 59% 29.85 in 10.0 mi South 17.3 mph 21.9 mph N/A   Clear
2:35 AM 62.8 °F - 49.1 °F 61% 29.84 in 10.0 mi South 18.4 mph 25.3 mph N/A   Clear
2:55 AM 62.8 °F - 48.9 °F 61% 29.82 in 10.0 mi South 19.6 mph 26.5 mph N/A   Clear
3:15 AM 61.9 °F - 48.7 °F 62% 29.82 in 10.0 mi South 18.4 mph 21.9 mph N/A   Clear
3:35 AM 61.7 °F - 48.4 °F 62% 29.82 in 10.0 mi South 17.3 mph - N/A   Clear
3:55 AM 61.3 °F - 48.2 °F 62% 29.82 in 10.0 mi South 16.1 mph 20.7 mph N/A   Clear
4:15 AM 60.8 °F - 47.7 °F 62% 29.81 in 10.0 mi South 17.3 mph - N/A   Clear
4:35 AM 60.8 °F - 47.1 °F 61% 29.81 in 10.0 mi South 18.4 mph 21.9 mph N/A   Clear
4:55 AM 61.7 °F - 46.0 °F 56% 29.81 in 10.0 mi South 19.6 mph 27.6 mph N/A   Clear
5:15 AM 61.7 °F - 45.5 °F 55% 29.81 in 10.0 mi South 18.4 mph 24.2 mph N/A   Clear
5:35 AM 61.2 °F - 45.5 °F 56% 29.80 in 10.0 mi South 17.3 mph 21.9 mph N/A   Clear
5:55 AM 60.4 °F - 45.1 °F 57% 29.80 in 10.0 mi South 16.1 mph - N/A   Clear
6:15 AM 60.4 °F - 45.0 °F 57% 29.80 in 10.0 mi South 17.3 mph 23.0 mph N/A   Clear
6:35 AM 59.7 °F - 45.0 °F 58% 29.80 in 10.0 mi South 15.0 mph - N/A   Clear
6:55 AM 59.5 °F - 44.8 °F 58% 29.80 in 10.0 mi South 16.1 mph - N/A   Clear
7:15 AM 59.4 °F - 45.0 °F 59% 29.80 in 10.0 mi South 16.1 mph - N/A   Clear
7:35 AM 60.3 °F - 45.3 °F 58% 29.79 in 10.0 mi South 17.3 mph 23.0 mph N/A   Clear
7:55 AM 62.2 °F - 46.0 °F 55% 29.79 in 10.0 mi South 19.6 mph 24.2 mph N/A   Clear
8:15 AM 63.5 °F - 45.7 °F 52% 29.78 in 10.0 mi South 20.7 mph 25.3 mph N/A   Clear
8:35 AM 64.4 °F - 46.0 °F 51% 29.79 in 10.0 mi South 23.0 mph 27.6 mph N/A   Clear
8:55 AM 65.7 °F - 46.6 °F 50% 29.79 in 10.0 mi South 18.4 mph 27.6 mph N/A   Mostly Cloudy
9:15 AM 65.8 °F - 47.1 °F 51% 29.79 in 10.0 mi SSW 12.7 mph 21.9 mph N/A   Mostly Cloudy
9:35 AM 66.2 °F - 48.2 °F 52% 29.79 in 10.0 mi South 21.9 mph 33.4 mph N/A   Scattered Clouds
9:55 AM 67.8 °F - 48.2 °F 49% 29.79 in 10.0 mi SSW 23.0 mph 32.2 mph N/A   Mostly Cloudy
10:15 AM 64.4 °F - 50.9 °F 62% 29.79 in 10.0 mi South 18.4 mph 32.2 mph N/A   Mostly Cloudy
10:35 AM 65.8 °F - 51.1 °F 59% 29.79 in 10.0 mi South 13.8 mph - N/A   Mostly Cloudy
10:55 AM 72.5 °F - 50.7 °F 46% 29.76 in 10.0 mi South 24.2 mph 29.9 mph N/A   Scattered Clouds
11:15 AM 70.2 °F - 49.6 °F 48% 29.77 in 10.0 mi South 21.9 mph 33.4 mph N/A   Mostly Cloudy
11:35 AM 70.0 °F - 51.1 °F 51% 29.76 in 10.0 mi South 18.4 mph 25.3 mph N/A   Scattered Clouds
11:55 AM 66.4 °F - 53.8 °F 64% 29.75 in 10.0 mi South 26.5 mph 35.7 mph N/A   Mostly Cloudy
12:15 PM 66.7 °F - 56.1 °F 69% 29.75 in 10.0 mi South 16.1 mph - N/A   Mostly Cloudy
12:35 PM 72.3 °F - 58.3 °F 61% 29.74 in 10.0 mi South 17.3 mph 23.0 mph 0.01 in   Scattered Clouds
12:55 PM 75.7 °F - 54.3 °F 47% 29.73 in 10.0 mi South 18.4 mph 27.6 mph 0.01 in   Clear
1:15 PM 79.7 °F - 52.0 °F 38% 29.71 in 10.0 mi SSW 32.2 mph 38.0 mph N/A   Clear
1:35 PM 81.5 °F - 49.5 °F 33% 29.70 in 10.0 mi South 32.2 mph 46.0 mph N/A   Clear
1:55 PM 81.7 °F - 48.2 °F 31% 29.69 in 7.0 mi South 34.5 mph 44.9 mph N/A   Clear
2:15 PM 83.1 °F - 50.0 °F 32% 29.68 in 10.0 mi South 32.2 mph 42.6 mph N/A   Clear
2:55 PM 82.0 °F - 51.3 °F 34% 29.66 in 10.0 mi South 28.8 mph 40.3 mph N/A   Clear
3:15 PM 81.9 °F - 52.7 °F 36% 29.65 in 10.0 mi South 28.8 mph 41.4 mph N/A   Clear
3:35 PM 82.0 °F - 51.1 °F 34% 29.63 in 10.0 mi South 25.3 mph 36.8 mph N/A   Clear
3:55 PM 82.4 °F - 52.7 °F 36% 29.61 in 10.0 mi South 28.8 mph 36.8 mph N/A   Clear
4:15 PM 81.7 °F 81.0 °F 53.8 °F 38% 29.61 in 10.0 mi South 29.9 mph 39.1 mph N/A   Clear
4:35 PM 79.7 °F - 54.5 °F 42% 29.59 in 10.0 mi SSE 32.2 mph 39.1 mph N/A   Clear
4:55 PM 81.0 °F 80.6 °F 54.7 °F 40% 29.57 in 10.0 mi SSE 35.7 mph 41.4 mph N/A   Clear
5:15 PM 77.9 °F - 54.3 °F 44% 29.55 in 10.0 mi SSE 27.6 mph 39.1 mph N/A   Clear
5:35 PM 76.6 °F - 56.3 °F 49% 29.55 in 10.0 mi SSE 26.5 mph 32.2 mph N/A   Scattered Clouds
6:15 PM 79.9 °F - 54.3 °F 41% 29.53 in 10.0 mi SSE 28.8 mph 39.1 mph N/A   Clear
6:35 PM 79.3 °F - 53.8 °F 41% 29.53 in 10.0 mi SSE 33.4 mph 40.3 mph N/A   Clear
6:55 PM 77.9 °F - 53.4 °F 43% 29.53 in 10.0 mi SSE 31.1 mph 39.1 mph N/A   Clear
7:15 PM 77.0 °F - 52.3 °F 42% 29.52 in 10.0 mi SSE 24.2 mph 34.5 mph N/A   Clear
7:35 PM 75.0 °F - 51.4 °F 44% 29.52 in 10.0 mi SSE 31.1 mph 34.5 mph N/A   Clear
7:55 PM 73.6 °F - 51.8 °F 46% 29.52 in 10.0 mi SSE 24.2 mph 32.2 mph N/A   Clear
8:15 PM 72.1 °F - 52.2 °F 49% 29.54 in 10.0 mi SSE 24.2 mph 38.0 mph N/A   Clear
8:35 PM 69.8 °F - 50.9 °F 51% 29.54 in 10.0 mi SSE 25.3 mph 31.1 mph N/A   Clear
8:55 PM 68.2 °F - 51.1 °F 54% 29.56 in 10.0 mi SSE 23.0 mph 28.8 mph N/A   Clear
9:15 PM 67.1 °F - 53.6 °F 62% 29.57 in 10.0 mi SSE 23.0 mph 31.1 mph N/A   Clear
9:35 PM 66.2 °F - 54.0 °F 65% 29.57 in 10.0 mi SSE 26.5 mph 32.2 mph N/A   Clear
9:55 PM 65.3 °F - 53.6 °F 66% 29.58 in 10.0 mi SSE 26.5 mph 34.5 mph N/A   Clear
10:15 PM 64.8 °F - 54.0 °F 68% 29.59 in 10.0 mi SSE 23.0 mph 29.9 mph N/A   Clear
10:35 PM 64.6 °F - 54.5 °F 70% 29.59 in 10.0 mi SSE 21.9 mph 29.9 mph N/A   Clear
10:55 PM 64.4 °F - 54.5 °F 70% 29.60 in 10.0 mi SSE 23.0 mph 27.6 mph N/A   Clear
11:15 PM 64.4 °F - 55.0 °F 72% 29.60 in 10.0 mi SSE 18.4 mph 29.9 mph N/A   Clear
11:35 PM 64.2 °F - 55.6 °F 73% 29.59 in 10.0 mi SSE 25.3 mph 32.2 mph N/A   Clear
11:55 PM 63.9 °F - 55.6 °F 74% 29.60 in 10.0 mi SSE 23.0 mph 32.2 mph N/A   Clear